,,Stat6,,Stat2,,Stat8,,Stat9,,Stat10,,Wind1,,Wind1,
time,status,PA1M_AVG,status,PR1M_SUM,status,RH1M_AVG,status,SR1M_AVG,status,TA1M_AVG,status,W1dAve1m,status,W1sAve1m,
2009-02-21, 00:00:00,VALID,918.114,VALID,0,VALID,98.8749,VALID,-0.0339617,VALID,19.7385,VALID,150,VALID,1.42378,
2009-02-21, 00:01:00,VALID,918.122,VALID,0,VALID,98.721,VALID,-0.0509425,VALID,19.6988,VALID,154,VALID,0.554869,
2009-02-21, 00:02:00,VALID,918.123,VALID,0,VALID,98.7325,VALID,-0.0339617,VALID,19.706,VALID,149,VALID,0.998326,
2009-02-21, 00:03:00,VALID,918.132,VALID,0,VALID,98.5239,VALID,-0.0509425,VALID,19.6504,VALID,149,VALID,0.982329,
2009-02-21, 00:04:00,VALID,918.124,VALID,0,VALID,98.3891,VALID,0,VALID,19.6145,VALID,148,VALID,0.793308,
2009-02-21, 00:05:00,VALID,918.121,VALID,0,VALID,98.1094,VALID,-0.0339617,VALID,19.5855,VALID,152,VALID,1.22545,
2009-02-21, 00:06:00,VALID,918.121,VALID,0,VALID,97.9364,VALID,-0.0339617,VALID,19.563,VALID,155,VALID,0.876562,
2009-02-21, 00:07:00,VALID,918.119,VALID,0,VALID,97.864,VALID,0,VALID,19.5301,VALID,156,VALID,0.449805,
2009-02-21, 00:08:00,VALID,918.119,VALID,0.2,VALID,97.5499,VALID,-0.118866,VALID,19.4864,VALID,152,VALID,0.90253,
2009-02-21, 00:09:00,VALID,918.104,VALID,0,VALID,97.6236,VALID,-0.118866,VALID,19.4535,VALID,157,VALID,0.442187,
2009-02-21, 00:10:00,VALID,918.108,VALID,0,VALID,97.6541,VALID,-0.101885,VALID,19.4347,VALID,149,VALID,1.09245,
2009-02-21, 00:11:00,VALID,918.11,VALID,0,VALID,97.8322,VALID,-0.135847,VALID,19.3956,VALID,154,VALID,0.431323,
2009-02-21, 00:12:00,VALID,918.109,VALID,0,VALID,97.8462,VALID,-0.118866,VALID,19.3534,VALID,156,VALID,1.64983,
2009-02-21, 00:13:00,VALID,918.124,VALID,0,VALID,97.8843,VALID,-0.118866,VALID,19.3082,VALID,155,VALID,1.7698,
2009-02-21, 00:14:00,VALID,918.121,VALID,0,VALID,97.9759,VALID,-0.118866,VALID,19.2788,VALID,157,VALID,1.13263,
2009-02-21, 00:15:00,VALID,918.115,VALID,0,VALID,97.9898,VALID,-0.135847,VALID,19.2533,VALID,161,VALID,1.28229,
2009-02-21, 00:16:00,VALID,918.119,VALID,0,VALID,98.0191,VALID,-0.152827,VALID,19.2206,VALID,164,VALID,1.65062,
2009-02-21, 00:17:00,VALID,918.124,VALID,0,VALID,98.0102,VALID,-0.135847,VALID,19.1944,VALID,151,VALID,1.73933,
2009-02-21, 00:18:00,VALID,918.129,VALID,0,VALID,98.1526,VALID,-0.118866,VALID,19.1912,VALID,162,VALID,1.55369,
2009-02-21, 00:19:00,VALID,918.121,VALID,0,VALID,98.1806,VALID,-0.0509425,VALID,19.1967,VALID,149,VALID,1.71181,
2009-02-21, 00:20:00,VALID,918.111,VALID,0,VALID,98.0255,VALID,-0.0339617,VALID,19.2157,VALID,149,VALID,1.90568,
2009-02-21, 00:21:00,VALID,918.112,VALID,0,VALID,97.808,VALID,-0.0169808,VALID,19.2386,VALID,141,VALID,2.12633,
2009-02-21, 00:22:00,VALID,918.099,VALID,0,VALID,97.6885,VALID,-0.0509425,VALID,19.2416,VALID,148,VALID,1.88449,
2009-02-21, 00:23:00,VALID,918.088,VALID,0,VALID,97.6656,VALID,-0.0169808,VALID,19.2349,VALID,139,VALID,2.11424,
2009-02-21, 00:24:00,VALID,918.093,VALID,0,VALID,97.5333,VALID,-0.0339617,VALID,19.2351,VALID,139,VALID,1.25852,
2009-02-21, 00:25:00,VALID,918.086,VALID,0,VALID,97.5257,VALID,0,VALID,19.2314,VALID,146,VALID,1.82969,
2009-02-21, 00:26:00,VALID,918.062,VALID,0,VALID,97.6452,VALID,0,VALID,19.2027,VALID,161,VALID,1.41202,
2009-02-21, 00:27:00,VALID,918.073,VALID,0,VALID,97.9059,VALID,0,VALID,19.1306,VALID,152,VALID,1.09487,
2009-02-21, 00:28:00,VALID,918.051,VALID,0,VALID,98.1615,VALID,-0.0169808,VALID,19.0694,VALID,151,VALID,1.60556,
2009-02-21, 00:29:00,VALID,918.043,VALID,0,VALID,98.3408,VALID,0,VALID,19.0078,VALID,155,VALID,1.36374,
2009-02-21, 00:30:00,VALID,918.028,VALID,0,VALID,98.585,VALID,-0.0169808,VALID,18.9552,VALID,158,VALID,0.81901,
2009-02-21, 00:31:00,VALID,918.017,VALID,0,VALID,98.7821,VALID,0,VALID,18.9402,VALID,144,VALID,0.56901,
2009-02-21, 00:32:00,VALID,918.006,VALID,0,VALID,98.8037,VALID,-0.0339617,VALID,18.9045,VALID,153,VALID,0.831174,
2009-02-21, 00:33:00,VALID,917.992,VALID,0.2,VALID,98.7617,VALID,-0.0339617,VALID,18.8623,VALID,152,VALID,1.22618,
2009-02-21, 00:34:00,VALID,917.998,VALID,0,VALID,98.7337,VALID,-0.0509425,VALID,18.8588,VALID,152,VALID,0.607677,
2009-02-21, 00:35:00,VALID,917.977,VALID,0,VALID,98.7045,VALID,-0.0509425,VALID,18.8625,VALID,147,VALID,0.920058,
2009-02-21, 00:36:00,VALID,917.972,VALID,0,VALID,98.6829,VALID,-0.0339617,VALID,18.8391,VALID,142,VALID,0.633358,
2009-02-21, 00:37:00,VALID,917.96,VALID,0,VALID,98.6485,VALID,-0.0339617,VALID,18.8201,VALID,133,VALID,0.653392,
2009-02-21, 00:38:00,VALID,917.96,VALID,0,VALID,98.6155,VALID,-0.0679233,VALID,18.8037,VALID,141,VALID,0.480168,
2009-02-21, 00:39:00,VALID,917.955,VALID,0,VALID,98.6905,VALID,-0.0679233,VALID,18.8039,VALID,141,VALID,0.489955,
2009-02-21, 00:40:00,VALID,917.966,VALID,0,VALID,98.6524,VALID,-0.0169808,VALID,18.8134,VALID,140,VALID,0.481424,
2009-02-21, 00:41:00,VALID,917.965,VALID,0,VALID,98.6536,VALID,0.0169808,VALID,18.8034,VALID,133,VALID,0.156432,
2009-02-21, 00:42:00,VALID,917.962,VALID,0,VALID,98.6994,VALID,-0.0169808,VALID,18.7842,VALID,109,VALID,0.277253,
2009-02-21, 00:43:00,VALID,917.957,VALID,0,VALID,99.0237,VALID,0,VALID,18.7845,VALID,106,VALID,0.0628811,
2009-02-21, 00:44:00,VALID,917.939,VALID,0,VALID,99.2068,VALID,-0.0169808,VALID,18.7615,VALID,144,VALID,0.0117188,
2009-02-21, 00:45:00,VALID,917.911,VALID,0,VALID,99.2297,VALID,-0.0169808,VALID,18.7451,VALID,147,VALID,0.416349,
2009-02-21, 00:46:00,VALID,917.903,VALID,0,VALID,99.1864,VALID,-0.0169808,VALID,18.7321,VALID,121,VALID,0.10992,
2009-02-21, 00:47:00,VALID,917.9,VALID,0,VALID,99.2487,VALID,0,VALID,18.7057,VALID,151,VALID,0.168241,
2009-02-21, 00:48:00,VALID,917.883,VALID,0,VALID,99.2246,VALID,0,VALID,18.6929,VALID,148,VALID,0.102834,
2009-02-21, 00:49:00,VALID,917.887,VALID,0,VALID,99.1305,VALID,-0.0169808,VALID,18.6702,VALID,148,VALID,0.213021,
2009-02-21, 00:50:00,VALID,917.883,VALID,0,VALID,99.1585,VALID,0,VALID,18.6542,VALID,145,VALID,0.106889,
2009-02-21, 00:51:00,VALID,917.889,VALID,0,VALID,99.2258,VALID,-0.0169808,VALID,18.6413,VALID,139,VALID,0.135045,
2009-02-21, 00:52:00,VALID,917.879,VALID,0,VALID,99.2818,VALID,0,VALID,18.638,VALID,144,VALID,0.0595486,
2009-02-21, 00:53:00,VALID,917.887,VALID,0,VALID,99.3021,VALID,-0.0169808,VALID,18.6278,VALID,145,VALID,0.157779,
2009-02-21, 00:54:00,VALID,917.875,VALID,0,VALID,99.3034,VALID,-0.0509425,VALID,18.6353,VALID,143,VALID,0.278201,
2009-02-21, 00:55:00,VALID,917.873,VALID,0,VALID,99.3021,VALID,-0.0339617,VALID,18.658,VALID,151,VALID,0,
2009-02-21, 00:56:01,VALID,917.86,VALID,0,VALID,99.2958,VALID,-0.0169808,VALID,18.6802,VALID,123,VALID,0,
2009-02-21, 00:57:00,VALID,917.852,VALID,0,VALID,99.1483,VALID,0,VALID,18.6932,VALID,159,VALID,0.123326,
2009-02-21, 00:58:00,VALID,917.829,VALID,0,VALID,99.0707,VALID,-0.0339617,VALID,18.6902,VALID,150,VALID,0,
2009-02-21, 00:59:00,VALID,917.823,VALID,0,VALID,98.6702,VALID,0,VALID,18.6994,VALID,138,VALID,1.42221,
2009-02-21, 01:00:00,VALID,917.812,VALID,0,VALID,98.2442,VALID,-0.0169808,VALID,18.8167,VALID,124,VALID,0.394159,
2009-02-21, 01:01:00,VALID,917.785,VALID,0,VALID,97.7838,VALID,0,VALID,18.8883,VALID,148,VALID,0.897135,
2009-02-21, 01:02:00,VALID,917.768,VALID,0,VALID,97.4965,VALID,-0.0169808,VALID,18.9239,VALID,141,VALID,1.51353,
2009-02-21, 01:03:00,VALID,917.748,VALID,0,VALID,97.1875,VALID,-0.0169808,VALID,18.9656,VALID,136,VALID,0.586301,
2009-02-21, 01:04:00,VALID,917.719,VALID,0,VALID,97.1722,VALID,0,VALID,18.9689,VALID,144,VALID,0.123402,
2009-02-21, 01:05:00,VALID,917.7,VALID,0,VALID,97.3362,VALID,-0.0339617,VALID,18.9402,VALID,133,VALID,0.519622,
2009-02-21, 01:06:01,VALID,917.674,VALID,0,VALID,97.5677,VALID,-0.0169808,VALID,18.8947,VALID,138,VALID,0.656822,
2009-02-21, 01:07:00,VALID,917.654,VALID,0,VALID,97.8856,VALID,-0.0339617,VALID,18.8623,VALID,121,VALID,0.539435,
2009-02-21, 01:08:00,VALID,917.623,VALID,0,VALID,98.1717,VALID,0,VALID,18.8331,VALID,138,VALID,0.465216,
2009-02-21, 01:09:01,VALID,917.604,VALID,0,VALID,98.3624,VALID,-0.0169808,VALID,18.8164,VALID,139,VALID,0.937881,
2009-02-21, 01:10:00,VALID,917.595,VALID,0,VALID,98.5824,VALID,-0.0169808,VALID,18.8159,VALID,145,VALID,0.696378,
2009-02-21, 01:11:00,VALID,917.551,VALID,0,VALID,98.604,VALID,-0.0339617,VALID,18.8125,VALID,149,VALID,1.49149,
2009-02-21, 01:12:00,VALID,917.529,VALID,0,VALID,98.585,VALID,0.0169808,VALID,18.8227,VALID,143,VALID,1.18212,
2009-02-21, 01:13:01,VALID,917.496,VALID,0,VALID,98.604,VALID,0.0169808,VALID,18.8027,VALID,144,VALID,1.37682,
2009-02-21, 01:14:00,VALID,917.487,VALID,0,VALID,98.7566,VALID,0,VALID,18.7868,VALID,150,VALID,0.544034,
2009-02-21, 01:15:00,VALID,917.458,VALID,0,VALID,98.8367,VALID,-0.0169808,VALID,18.7645,VALID,147,VALID,1.07467,
2009-02-21, 01:16:00,VALID,917.435,VALID,0,VALID,98.9346,VALID,-0.0169808,VALID,18.7224,VALID,146,VALID,1.23379,
2009-02-21, 01:17:00,VALID,917.423,VALID,0,VALID,99.147,VALID,-0.0169808,VALID,18.6867,VALID,139,VALID,0.931597,
2009-02-21, 01:18:00,VALID,917.408,VALID,0,VALID,99.3441,VALID,-0.0169808,VALID,18.6538,VALID,137,VALID,0.853413,
2009-02-21, 01:19:00,VALID,917.374,VALID,0,VALID,99.5374,VALID,-0.0169808,VALID,18.6151,VALID,138,VALID,1.34162,
2009-02-21, 01:20:00,VALID,917.358,VALID,0,VALID,99.7256,VALID,0,VALID,18.5822,VALID,137,VALID,0.752046,
2009-02-21, 01:21:01,VALID,917.349,VALID,0,VALID,99.8858,VALID,0,VALID,18.5729,VALID,141,VALID,0.515439,
2009-02-21, 01:22:00,VALID,917.318,VALID,0,VALID,99.9708,VALID,0.0169808,VALID,18.5595,VALID,138,VALID,0.859193,
2009-02-21, 01:23:00,VALID,917.297,VALID,0,VALID,99.9606,VALID,0,VALID,18.563,VALID,144,VALID,0.696039,
2009-02-21, 01:24:01,VALID,917.297,VALID,0,VALID,99.8884,VALID,0,VALID,18.5697,VALID,132,VALID,1.24066,
2009-02-21, 01:25:00,VALID,917.293,VALID,0,VALID,99.8489,VALID,0,VALID,18.5729,VALID,136,VALID,0.712573,
2009-02-21, 01:26:00,VALID,917.276,VALID,0,VALID,99.8184,VALID,0.0169808,VALID,18.5729,VALID,140,VALID,0.674826,
2009-02-21, 01:27:00,VALID,917.278,VALID,0,VALID,99.7993,VALID,0,VALID,18.5498,VALID,142,VALID,0.719105,
2009-02-21, 01:28:00,VALID,917.265,VALID,0,VALID,99.7307,VALID,0.0339617,VALID,18.5465,VALID,141,VALID,1.01469,
2009-02-21, 01:29:00,VALID,917.247,VALID,0,VALID,99.6073,VALID,-0.0169808,VALID,18.566,VALID,138,VALID,1.4627,
2009-02-21, 01:30:01,VALID,917.229,VALID,0,VALID,99.5374,VALID,0,VALID,18.5759,VALID,143,VALID,0.926054,
2009-02-21, 01:31:00,VALID,917.225,VALID,0,VALID,99.5069,VALID,0.0169808,VALID,18.5792,VALID,145,VALID,1.02049,
2009-02-21, 01:32:00,VALID,917.214,VALID,0,VALID,99.5234,VALID,0.0169808,VALID,18.5794,VALID,141,VALID,0.865473,
2009-02-21, 01:33:00,VALID,917.185,VALID,0,VALID,99.5603,VALID,0.0169808,VALID,18.5827,VALID,142,VALID,0.565662,
2009-02-21, 01:34:00,VALID,917.175,VALID,0,VALID,99.5692,VALID,0,VALID,18.5891,VALID,150,VALID,0.638445,
2009-02-21, 01:35:00,VALID,917.163,VALID,0,VALID,99.5946,VALID,0.0339617,VALID,18.5755,VALID,145,VALID,0.652158,
2009-02-21, 01:36:00,VALID,917.16,VALID,0,VALID,99.6175,VALID,0.0169808,VALID,18.5755,VALID,145,VALID,0.746875,
2009-02-21, 01:37:01,VALID,917.148,VALID,0,VALID,99.662,VALID,0,VALID,18.5819,VALID,147,VALID,1.07722,
2009-02-21, 01:38:00,VALID,917.127,VALID,0,VALID,99.779,VALID,-0.0509425,VALID,18.5766,VALID,156,VALID,0.684593,
2009-02-21, 01:39:00,VALID,917.135,VALID,0,VALID,99.8845,VALID,-0.101885,VALID,18.5736,VALID,151,VALID,0.960366,
2009-02-21, 01:40:00,VALID,917.136,VALID,0,VALID,99.9443,VALID,-0.0509425,VALID,18.5836,VALID,147,VALID,0.681641,
2009-02-21, 01:41:00,VALID,917.127,VALID,0,VALID,99.9977,VALID,-0.0679233,VALID,18.5866,VALID,156,VALID,0.557413,
2009-02-21, 01:42:00,VALID,917.112,VALID,0,VALID,99.9952,VALID,-0.101885,VALID,18.5871,VALID,145,VALID,1.07515,
2009-02-21, 01:43:01,VALID,917.111,VALID,0,VALID,99.9804,VALID,-0.101885,VALID,18.6095,VALID,147,VALID,0.720465,
2009-02-21, 01:44:01,VALID,917.105,VALID,0,VALID,99.8858,VALID,-0.101885,VALID,18.6385,VALID,144,VALID,0.339753,
2009-02-21, 01:45:01,VALID,917.102,VALID,0,VALID,99.7828,VALID,-0.101885,VALID,18.6582,VALID,149,VALID,0.432492,
2009-02-21, 01:46:01,VALID,917.086,VALID,0,VALID,99.6785,VALID,-0.118866,VALID,18.6781,VALID,138,VALID,0.708734,
2009-02-21, 01:47:01,VALID,917.072,VALID,0,VALID,99.5743,VALID,-0.0849042,VALID,18.6872,VALID,143,VALID,0.620276,
2009-02-21, 01:48:00,VALID,917.062,VALID,0,VALID,99.5234,VALID,-0.101885,VALID,18.6969,VALID,147,VALID,0.0969893,
2009-02-21, 01:49:01,VALID,917.023,VALID,0,VALID,99.4509,VALID,-0.101885,VALID,18.7071,VALID,137,VALID,0.378815,
2009-02-21, 01:50:00,VALID,916.995,VALID,0,VALID,99.3899,VALID,-0.118866,VALID,18.7071,VALID,154,VALID,0.401486,
2009-02-21, 01:51:01,VALID,916.983,VALID,0,VALID,99.3288,VALID,-0.101885,VALID,18.7034,VALID,159,VALID,0.490039,
2009-02-21, 01:52:01,VALID,916.949,VALID,0,VALID,99.2971,VALID,-0.0679233,VALID,18.7131,VALID,145,VALID,0.140625,
2009-02-21, 01:53:01,VALID,916.938,VALID,0,VALID,99.3339,VALID,-0.0169808,VALID,18.6989,VALID,158,VALID,0.461115,
2009-02-21, 01:54:01,VALID,916.911,VALID,0,VALID,99.4001,VALID,0.0169808,VALID,18.6827,VALID,145,VALID,0.697599,
2009-02-21, 01:55:01,VALID,916.899,VALID,0,VALID,99.5221,VALID,0.0169808,VALID,18.66,VALID,135,VALID,0.151786,
2009-02-21, 01:56:01,VALID,916.897,VALID,0,VALID,99.5959,VALID,0,VALID,18.6403,VALID,130,VALID,0.028125,
2009-02-21, 01:57:01,VALID,916.89,VALID,0,VALID,99.6684,VALID,-0.0169808,VALID,18.6251,VALID,121,VALID,0.078125,
2009-02-21, 01:58:00,VALID,916.877,VALID,0,VALID,99.7663,VALID,0,VALID,18.5989,VALID,154,VALID,0.0893674,
2009-02-21, 01:59:00,VALID,916.868,VALID,0,VALID,99.8655,VALID,0,VALID,18.5819,VALID,118,VALID,0.00241815,
2009-02-21, 02:00:00,VALID,916.863,VALID,0,VALID,99.8947,VALID,0,VALID,18.5764,VALID,126,VALID,0.341619,
2009-02-21, 02:01:00,VALID,916.851,VALID,0,VALID,99.9481,VALID,0,VALID,18.5502,VALID,149,VALID,0.00538194,
2009-02-21, 02:02:00,VALID,916.839,VALID,0,VALID,99.9977,VALID,-0.0169808,VALID,18.5567,VALID,100,VALID,0,
2009-02-21, 02:03:00,VALID,916.831,VALID,0,VALID,100,VALID,-0.0169808,VALID,18.5372,VALID,49,VALID,0.00111607,
2009-02-21, 02:04:00,VALID,916.817,VALID,0,VALID,100,VALID,0,VALID,18.5305,VALID,48,VALID,0.0674716,
2009-02-21, 02:05:00,VALID,916.817,VALID,0,VALID,100,VALID,0,VALID,18.5046,VALID,47,VALID,0,
2009-02-21, 02:06:00,VALID,916.802,VALID,0,VALID,100,VALID,-0.0169808,VALID,18.4689,VALID,54,VALID,0,
2009-02-21, 02:07:00,VALID,916.789,VALID,0,VALID,100,VALID,-0.0169808,VALID,18.4462,VALID,66,VALID,0,
2009-02-21, 02:08:00,VALID,916.786,VALID,0,VALID,100,VALID,0.0169808,VALID,18.4101,VALID,50,VALID,0,
2009-02-21, 02:09:00,VALID,916.766,VALID,0,VALID,100,VALID,0,VALID,18.3973,VALID,56,VALID,0,
2009-02-21, 02:10:00,VALID,916.743,VALID,0,VALID,100,VALID,-0.0169808,VALID,18.3781,VALID,58,VALID,0,
2009-02-21, 02:11:00,VALID,916.732,VALID,0,VALID,100,VALID,0.0169808,VALID,18.3552,VALID,67,VALID,0,
2009-02-21, 02:12:00,VALID,916.724,VALID,0,VALID,100,VALID,0.0169808,VALID,18.3559,VALID,67,VALID,0,
2009-02-21, 02:13:00,VALID,916.703,VALID,0,VALID,100,VALID,-0.0169808,VALID,18.3427,VALID,61,VALID,0,
2009-02-21, 02:14:00,VALID,916.697,VALID,0,VALID,100,VALID,0,VALID,18.3292,VALID,52,VALID,0,
2009-02-21, 02:15:00,VALID,916.694,VALID,0,VALID,100,VALID,0.0169808,VALID,18.3457,VALID,52,VALID,0,
2009-02-21, 02:16:00,VALID,916.679,VALID,0,VALID,100,VALID,0.0169808,VALID,18.3487,VALID,57,VALID,0,
2009-02-21, 02:17:00,VALID,916.695,VALID,0,VALID,100,VALID,-0.0339617,VALID,18.3424,VALID,45,VALID,0,
2009-02-21, 02:18:00,VALID,916.683,VALID,0,VALID,100,VALID,0,VALID,18.3524,VALID,40,VALID,0,
2009-02-21, 02:19:00,VALID,916.682,VALID,0,VALID,100,VALID,-0.0169808,VALID,18.3359,VALID,40,VALID,0,
2009-02-21, 02:20:00,VALID,916.678,VALID,0,VALID,100,VALID,0.0339617,VALID,18.3322,VALID,40,VALID,0,
2009-02-21, 02:21:00,VALID,916.671,VALID,0,VALID,100,VALID,-0.0169808,VALID,18.3355,VALID,40,VALID,0,
2009-02-21, 02:22:00,VALID,916.672,VALID,0,VALID,100,VALID,0.0339617,VALID,18.3355,VALID,40,VALID,0,
2009-02-21, 02:23:00,VALID,916.667,VALID,0,VALID,100,VALID,-0.0849042,VALID,18.3334,VALID,83,VALID,0,
2009-02-21, 02:24:00,VALID,916.667,VALID,0,VALID,100,VALID,-0.101885,VALID,18.3501,VALID,69,VALID,0,
2009-02-21, 02:25:00,VALID,916.668,VALID,0,VALID,100,VALID,-0.101885,VALID,18.3566,VALID,69,VALID,0,
2009-02-21, 02:26:00,VALID,916.646,VALID,0,VALID,100,VALID,-0.101885,VALID,18.3665,VALID,73,VALID,0,
2009-02-21, 02:27:00,VALID,916.636,VALID,0,VALID,100,VALID,-0.118866,VALID,18.3661,VALID,152,VALID,0.0798234,
2009-02-21, 02:28:00,VALID,916.613,VALID,0,VALID,100,VALID,-0.118866,VALID,18.3702,VALID,162,VALID,0.147347,
2009-02-21, 02:29:00,VALID,916.592,VALID,0,VALID,100,VALID,-0.135847,VALID,18.4059,VALID,159,VALID,0.528161,
2009-02-21, 02:30:00,VALID,916.597,VALID,0,VALID,100,VALID,-0.101885,VALID,18.4476,VALID,167,VALID,0.293139,
2009-02-21, 02:31:00,VALID,916.589,VALID,0,VALID,100,VALID,-0.118866,VALID,18.4828,VALID,190,VALID,0,
2009-02-21, 02:32:00,VALID,916.581,VALID,0,VALID,100,VALID,-0.101885,VALID,18.4895,VALID,190,VALID,0,
2009-02-21, 02:33:00,VALID,916.575,VALID,0,VALID,100,VALID,-0.101885,VALID,18.4863,VALID,163,VALID,0.0509673,
2009-02-21, 02:34:00,VALID,916.556,VALID,0,VALID,100,VALID,-0.0849042,VALID,18.4798,VALID,158,VALID,0,
2009-02-21, 02:35:00,VALID,916.534,VALID,0,VALID,100,VALID,-0.101885,VALID,18.4634,VALID,149,VALID,0.184451,
2009-02-21, 02:36:00,VALID,916.524,VALID,0.2,VALID,100,VALID,-0.0849042,VALID,18.4698,VALID,168,VALID,0.0902344,
2009-02-21, 02:37:00,VALID,916.504,VALID,0,VALID,100,VALID,-0.118866,VALID,18.4666,VALID,161,VALID,0.193496,
2009-02-21, 02:38:00,VALID,916.476,VALID,0,VALID,100,VALID,-0.0849042,VALID,18.4501,VALID,169,VALID,0.406994,
2009-02-21, 02:39:00,VALID,916.458,VALID,0,VALID,100,VALID,-0.101885,VALID,18.4441,VALID,171,VALID,0.199929,
2009-02-21, 02:40:00,VALID,916.443,VALID,0,VALID,100,VALID,-0.0849042,VALID,18.4342,VALID,171,VALID,0.258765,
2009-02-21, 02:41:00,VALID,916.443,VALID,0,VALID,100,VALID,-0.101885,VALID,18.4277,VALID,175,VALID,0.130766,
2009-02-21, 02:42:00,VALID,916.422,VALID,0,VALID,100,VALID,-0.0849042,VALID,18.4279,VALID,171,VALID,0.0144817,
2009-02-21, 02:43:00,VALID,916.407,VALID,0,VALID,100,VALID,-0.101885,VALID,18.4281,VALID,166,VALID,0.0963542,
2009-02-21, 02:44:00,VALID,916.417,VALID,0,VALID,100,VALID,-0.118866,VALID,18.405,VALID,167,VALID,0.312682,
2009-02-21, 02:45:00,VALID,916.417,VALID,0,VALID,100,VALID,-0.0679233,VALID,18.402,VALID,166,VALID,0.664621,
2009-02-21, 02:46:00,VALID,916.423,VALID,0,VALID,100,VALID,-0.101885,VALID,18.4022,VALID,173,VALID,0.643111,
2009-02-21, 02:47:00,VALID,916.405,VALID,0,VALID,100,VALID,-0.0849042,VALID,18.3922,VALID,164,VALID,0.599254,
2009-02-21, 02:48:00,VALID,916.416,VALID,0,VALID,100,VALID,-0.0849042,VALID,18.3888,VALID,180,VALID,0.393043,
2009-02-21, 02:49:00,VALID,916.404,VALID,0.2,VALID,100,VALID,-0.0849042,VALID,18.3885,VALID,175,VALID,0.386347,
2009-02-21, 02:50:00,VALID,916.399,VALID,0,VALID,100,VALID,-0.0849042,VALID,18.3693,VALID,175,VALID,0.673828,
2009-02-21, 02:51:00,VALID,916.374,VALID,0,VALID,100,VALID,-0.0679233,VALID,18.3563,VALID,181,VALID,0.825218,
2009-02-21, 02:52:00,VALID,916.397,VALID,0,VALID,100,VALID,-0.0849042,VALID,18.3528,VALID,176,VALID,1.07582,
2009-02-21, 02:53:00,VALID,916.391,VALID,0,VALID,100,VALID,-0.0849042,VALID,18.3566,VALID,177,VALID,0.889881,
2009-02-21, 02:54:00,VALID,916.377,VALID,0,VALID,100,VALID,-0.101885,VALID,18.3533,VALID,169,VALID,0.287791,
2009-02-21, 02:55:00,VALID,916.36,VALID,0,VALID,100,VALID,-0.101885,VALID,18.3498,VALID,168,VALID,0.256904,
2009-02-21, 02:56:00,VALID,916.37,VALID,0,VALID,100,VALID,-0.101885,VALID,18.3793,VALID,178,VALID,0.584162,
2009-02-21, 02:57:00,VALID,916.355,VALID,0,VALID,100,VALID,-0.0849042,VALID,18.4409,VALID,173,VALID,0.211319,
2009-02-21, 02:58:00,VALID,916.357,VALID,0,VALID,100,VALID,-0.118866,VALID,18.4993,VALID,167,VALID,0,
2009-02-21, 02:59:00,VALID,916.345,VALID,0,VALID,100,VALID,-0.0849042,VALID,18.5122,VALID,183,VALID,0.23165,
2009-02-21, 03:00:00,VALID,916.342,VALID,0,VALID,100,VALID,-0.101885,VALID,18.5285,VALID,161,VALID,0,
2009-02-21, 03:01:00,VALID,916.328,VALID,0,VALID,99.9316,VALID,-0.101885,VALID,18.5187,VALID,177,VALID,0.351749,
2009-02-21, 03:02:00,VALID,916.302,VALID,0,VALID,99.9036,VALID,-0.101885,VALID,18.5289,VALID,181,VALID,0.193496,
2009-02-21, 03:03:00,VALID,916.286,VALID,0,VALID,99.9252,VALID,-0.101885,VALID,18.5254,VALID,182,VALID,0.00266768,
2009-02-21, 03:04:00,VALID,916.281,VALID,0,VALID,99.9855,VALID,-0.101885,VALID,18.5088,VALID,186,VALID,0.0181686,
2009-02-21, 03:05:00,VALID,916.258,VALID,0,VALID,99.999,VALID,-0.101885,VALID,18.5097,VALID,181,VALID,0.408727,
2009-02-21, 03:06:00,VALID,916.251,VALID,0,VALID,100,VALID,-0.101885,VALID,18.48,VALID,176,VALID,0.253997,
2009-02-21, 03:07:00,VALID,916.248,VALID,0,VALID,100,VALID,-0.101885,VALID,18.4536,VALID,174,VALID,0.00195313,
2009-02-21, 03:08:00,VALID,916.221,VALID,0,VALID,100,VALID,0,VALID,18.443,VALID,173,VALID,0.0859375,
2009-02-21, 03:09:00,VALID,916.204,VALID,0,VALID,100,VALID,0,VALID,18.4105,VALID,164,VALID,0.131696,
2009-02-21, 03:10:00,VALID,916.18,VALID,0,VALID,100,VALID,0,VALID,18.3809,VALID,161,VALID,0.134909,
2009-02-21, 03:11:00,VALID,916.179,VALID,0,VALID,100,VALID,0.0169808,VALID,18.3813,VALID,163,VALID,0.454102,
2009-02-21, 03:12:00,VALID,916.161,VALID,0,VALID,100,VALID,0.0169808,VALID,18.3677,VALID,158,VALID,0.128049,
2009-02-21, 03:13:00,VALID,916.141,VALID,0,VALID,100,VALID,0.0169808,VALID,18.3547,VALID,168,VALID,0.626488,
2009-02-21, 03:14:00,VALID,916.141,VALID,0,VALID,100,VALID,0.0169808,VALID,18.3714,VALID,170,VALID,0.5625,
2009-02-21, 03:15:00,VALID,916.13,VALID,0,VALID,100,VALID,0.0169808,VALID,18.3711,VALID,169,VALID,0.375908,
2009-02-21, 03:16:00,VALID,916.103,VALID,0,VALID,100,VALID,0.0169808,VALID,18.3744,VALID,174,VALID,0.168308,
2009-02-21, 03:17:00,VALID,916.104,VALID,0,VALID,100,VALID,0.0509425,VALID,18.3709,VALID,166,VALID,0.866338,
2009-02-21, 03:18:00,VALID,916.081,VALID,0,VALID,100,VALID,0,VALID,18.3809,VALID,168,VALID,0.612614,
2009-02-21, 03:19:00,VALID,916.078,VALID,0,VALID,100,VALID,0.0169808,VALID,18.3969,VALID,151,VALID,0.535764,
2009-02-21, 03:20:00,VALID,916.073,VALID,0,VALID,100,VALID,0,VALID,18.3973,VALID,165,VALID,0.732469,
2009-02-21, 03:21:00,VALID,916.06,VALID,0,VALID,100,VALID,0.0339617,VALID,18.3904,VALID,163,VALID,0.630149,
2009-02-21, 03:22:00,VALID,916.043,VALID,0,VALID,100,VALID,0.0339617,VALID,18.3971,VALID,163,VALID,0.734561,
2009-02-21, 03:23:00,VALID,916.027,VALID,0,VALID,100,VALID,0,VALID,18.4036,VALID,161,VALID,1.0439,
2009-02-21, 03:24:00,VALID,916.006,VALID,0,VALID,100,VALID,0,VALID,18.4101,VALID,152,VALID,0.841654,
2009-02-21, 03:25:00,VALID,915.986,VALID,0,VALID,100,VALID,-0.0169808,VALID,18.4295,VALID,148,VALID,0.435937,
2009-02-21, 03:26:00,VALID,915.978,VALID,0,VALID,100,VALID,0.0169808,VALID,18.4295,VALID,169,VALID,0.18657,
2009-02-21, 03:27:00,VALID,915.966,VALID,0,VALID,100,VALID,-0.0339617,VALID,18.4133,VALID,163,VALID,0.89444,
2009-02-21, 03:28:00,VALID,915.97,VALID,0,VALID,100,VALID,0.0509425,VALID,18.4198,VALID,157,VALID,0.716082,
2009-02-21, 03:29:00,VALID,915.942,VALID,0,VALID,99.9964,VALID,0,VALID,18.4138,VALID,149,VALID,1.06424,
2009-02-21, 03:30:00,VALID,915.952,VALID,0,VALID,99.999,VALID,0,VALID,18.4133,VALID,151,VALID,0.479403,
2009-02-21, 03:31:00,VALID,915.943,VALID,0,VALID,99.9903,VALID,0,VALID,18.4131,VALID,162,VALID,0.5625,
2009-02-21, 03:32:00,VALID,915.925,VALID,0,VALID,99.9532,VALID,0,VALID,18.4198,VALID,161,VALID,1.1557,
2009-02-21, 03:33:00,VALID,915.915,VALID,0,VALID,99.9163,VALID,0,VALID,18.439,VALID,156,VALID,0.718572,
2009-02-21, 03:34:00,VALID,915.909,VALID,0,VALID,99.8388,VALID,0,VALID,18.4383,VALID,153,VALID,0.675,
2009-02-21, 03:35:00,VALID,915.899,VALID,0,VALID,99.8095,VALID,-0.0169808,VALID,18.4487,VALID,156,VALID,0.899771,
2009-02-21, 03:36:00,VALID,915.897,VALID,0,VALID,99.7739,VALID,-0.0339617,VALID,18.439,VALID,155,VALID,0.83939,